Regional Weather Roundup
Issued by NWS

Home | Current Version | Previous Version | Graphics & Text | Print | Product List | Glossary On
Versions: 1 2 3 4 5 6 7 8 9 10 11 12 13 14 15 16 17 18 19 20 21 22 23 24 25 26 27 28 29 30 31 32 33 34 35 36 37 38 39 40 41 42 43 44 45 46 47 48 49 50
000
ASUS44 KMEG 230910
RWRTN
TENNESSEE HOURLY STATE WEATHER ROUNDUP
NATIONAL WEATHER SERVICE MEMPHIS TN
400 AM CDT SAT MAY 23 2015

TNZ002-004-019-021-049-052-054-088>092-231000-
WEST TENNESSEE

CITY           SKY/WX    TMP DP  RH WIND       PRES   REMARKS
MEMPHIS INTL   CLOUDY    66  48  52 SE5       30.24R
NWS MEMPHIS      N/A     61 N/A N/A MISG        N/A
JACKSON        CLOUDY    57  51  80 CALM      30.27R
DYERSBURG      CLOUDY    59  43  55 CALM      30.28R
PARIS          MOCLDY    55  50  82 CALM      30.28R
LEXINGTON      CLEAR     52  52 100 CALM      30.26R
$$

TNZ008-025-027-028-033-062-065-066-231000-
NORTH MIDDLE TENNESSEE

CITY           SKY/WX    TMP DP  RH WIND       PRES   REMARKS
NASHVILLE      MOCLDY    53  50  89 CALM      30.30R
CLARKSVILLE    CLOUDY    54  52  93 SE5       30.28R
SMYRNA         CLEAR     50  49  96 CALM      30.31R
COOKEVILLE     CLEAR     45  45 100 CALM      30.29S
CROSSVILLE     CLEAR     47  43  86 CALM      30.32R
$$

TNZ061-075-076-078-094-096-097-231000-
SOUTH MIDDLE TENNESSEE

CITY           SKY/WX    TMP DP  RH WIND       PRES   REMARKS
FAYETTEVILLE   CLEAR    N/A N/A N/A MISG      30.28S
TULLAHOMA      CLEAR     45  41  87 CALM      30.30R
WINCHESTER     CLEAR     46  45  93 CALM      30.30R
MCMINNVILLE    CLEAR     45  45 100 CALM      30.30R
COLUMBIA       CLEAR     46  46 100 CALM      30.28R
SHELBYVILLE    CLEAR     46  46 100 CALM      30.30R
$$

TNZ017-018-042-046-047-231000-
NORTHEAST TENNESSEE

CITY           SKY/WX    TMP DP  RH WIND       PRES   REMARKS
TRI CITIES     MOCLDY    47  45  93 CALM      30.35R
ELIZABETHTON   SUNNY     46  41  81 NE5       30.36R
$$

TNZ012-013-036-069-073-074-231000-
CENTRAL EAST TENNESSEE

CITY           SKY/WX    TMP DP  RH WIND       PRES   REMARKS
KNOXVILLE      PTCLDY    51  45  79 N3        30.30R
OAK RIDGE      CLEAR     51  48  89 NE3       30.33R
GATLINBURG     SUNNY     46  45  93 CALM      30.32R
MORRISTOWN     SUNNY     52  46  82 E3        30.33R
$$

TNZ083-085-099-231000-
SOUTHEAST TENNESSEE

CITY           SKY/WX    TMP DP  RH WIND       PRES   REMARKS
CHATTANOOGA    CLEAR     51  48  89 CALM      30.30R
$$

SKY/WX REPORTED AS FAIR MEANS FEW OR NO CLOUDS BELOW
12 THOUSAND FEET.



USA.gov is the U.S. government's official web portal to all federal, state and local government web resources and services.